Theta_e
305 305 305 305 305 306 308 308 307 308 309 309 309 309 309 309 309 310 310 312 316 322 322 323 320 329 332 344 348 346 348 355 356 355 348 346 353 355 352 353 352 352 350 350 349
305 305 305 305 305 306 307 310 308 308 309 310 309 309 309 310 311 311 313 313 316 319 319 321 323 331 332 337 344 346 347 352 352 352 349 352 354 352 354 354 354 351 351 349 349
305 305 305 305 306 306 307 310 309 307 308 309 309 309 309 312 323 326 320 315 317 318 319 318 324 330 334 337 340 343 346 350 349 348 347 348 349 350 353 355 355 351 350 347 349
304 304 305 305 306 306 307 311 309 308 308 309 309 309 310 313 330 329 324 320 320 315 318 318 322 328 334 336 339 342 342 345 346 344 350 350 352 354 354 354 352 350 349 347 349
305 305 304 305 305 306 309 311 308 308 308 308 309 309 311 324 324 323 321 320 316 315 316 319 324 330 336 336 338 340 339 343 346 347 347 351 353 348 347 352 352 350 349 348 349
307 308 307 305 305 307 310 310 309 308 308 309 309 309 311 322 321 321 322 325 319 314 318 322 332 336 337 336 335 337 338 338 346 347 351 352 353 349 349 351 352 351 350 349 348
309 308 307 306 304 308 311 310 309 308 309 310 309 310 313 319 320 320 320 324 326 317 319 332 334 335 336 334 336 330 329 329 338 344 353 353 352 349 348 352 351 351 350 348 348
307 306 306 306 305 309 311 311 310 309 310 312 315 317 327 321 319 319 320 325 330 324 321 332 335 336 335 334 333 328 325 327 329 334 343 353 358 354 352 350 352 350 350 348 347
306 306 305 306 305 310 313 313 312 309 312 317 326 328 330 323 320 321 324 326 327 327 322 325 328 333 333 328 329 328 322 325 327 329 335 344 358 353 351 352 353 350 350 349 348
305 306 305 305 305 311 315 315 316 312 316 315 317 325 323 318 317 318 323 326 328 325 325 327 330 330 327 325 328 328 324 323 324 328 332 337 358 354 352 352 352 350 350 349 348
305 305 304 304 305 313 317 318 319 326 320 328 324 322 317 317 318 318 318 325 327 328 326 329 329 328 327 326 326 327 327 325 324 325 330 335 358 356 352 347 350 351 350 349 348
305 305 305 305 308 314 316 317 316 315 315 317 319 315 316 316 318 321 319 321 328 328 330 329 329 329 329 327 328 326 326 326 325 326 327 348 355 350 347 343 348 349 348 350 348
305 307 308 306 315 316 317 317 316 315 315 316 317 316 316 316 318 323 322 324 327 329 327 324 329 329 329 328 326 325 324 325 325 325 325 346 351 344 343 343 340 344 343 348 349
307 310 311 307 317 318 319 317 316 315 315 319 317 317 316 316 317 318 320 322 324 325 326 326 326 326 327 328 326 323 325 326 326 323 323 324 346 348 345 347 345 346 346 347 349
309 310 311 310 311 318 317 317 316 315 321 319 317 316 316 316 318 318 318 319 321 325 324 323 325 326 327 327 325 324 326 325 325 323 322 323 322 348 346 349 348 346 336 342 349
310 310 312 318 318 318 317 317 317 315 321 318 316 316 315 316 317 318 318 318 319 321 321 322 324 324 324 326 325 326 325 324 323 322 320 321 323 344 351 347 343 349 345 348 350
313 310 313 314 318 317 317 317 318 317 319 317 316 316 316 316 317 317 318 318 317 319 319 320 321 321 324 324 323 326 325 323 323 323 323 320 321 322 351 349 345 349 351 348 349
314 312 316 317 317 317 316 318 322 322 320 318 317 317 316 317 317 317 317 316 317 318 315 316 317 320 322 324 324 323 323 323 326 325 324 322 322 323 329 350 347 346 347 341 349
314 315 318 317 317 316 317 322 320 320 319 319 319 319 318 317 317 317 317 316 318 315 317 317 318 318 319 319 323 323 323 323 323 324 326 326 324 324 324 330 345 341 342 345 350
315 318 319 318 317 317 318 321 319 318 317 319 320 320 320 318 319 318 317 317 318 317 316 315 315 317 317 318 321 323 324 325 323 327 328 327 327 327 324 324 344 347 348 350 350
319 321 319 317 317 318 322 321 319 317 317 318 319 319 319 319 318 318 318 315 316 316 316 315 314 316 316 318 318 320 323 323 324 325 326 326 326 327 334 327 338 345 347 350 344
319 322 317 319 320 321 318 317 316 317 316 316 318 317 317 317 317 317 316 315 314 315 315 313 314 315 317 317 317 317 318 324 326 326 327 329 329 331 333 337 332 343 345 346 343
319 320 318 318 320 318 317 316 315 315 314 315 316 315 315 315 316 316 317 315 314 315 314 311 313 314 316 315 317 317 318 318 322 321 324 329 330 332 332 332 336 342 344 346 348
320 319 319 317 317 317 319 317 316 314 314 315 314 315 315 315 315 314 314 314 313 314 313 312 310 311 313 314 314 316 317 317 318 320 324 325 327 332 333 332 336 338 342 346 342
320 317 317 317 318 316 316 316 316 315 314 313 315 313 313 314 313 314 314 313 313 315 313 311 311 311 312 313 314 314 315 317 317 318 319 320 325 330 332 336 334 334 337 339 341
317 317 317 316 316 317 315 316 315 314 314 313 313 312 313 313 313 312 311 311 312 312 311 313 313 314 314 314 314 315 315 316 317 318 318 318 326 329 331 332 331 330 333 333 334
318 318 318 316 315 314 314 314 314 314 313 312 312 312 314 313 312 312 312 312 311 311 310 311 315 313 314 313 313 315 315 315 316 317 318 318 326 326 330 332 331 329 328 331 330
Wind_Speed
20 21 22 22 22 21 20 19 17 14 15 13 12 12 14 16 13 15 18 10 14 7 15 7 9 14 17 11 20 21 4 4 5 7 6 15 8 7 9 15 29 11 38 47 43
20 21 22 23 23 23 21 20 17 14 13 14 12 13 15 15 17 18 7 13 13 11 12 15 12 14 17 20 14 14 5 6 7 6 4 6 9 21 9 9 13 21 37 40 38
22 22 23 23 24 23 22 20 17 15 14 13 14 13 13 15 11 5 1 11 13 14 14 15 14 15 19 19 22 16 10 10 7 11 5 10 22 19 8 12 19 40 47 41 41
23 24 23 23 23 23 21 19 17 16 14 13 11 10 10 10 3 2 6 7 12 14 16 17 20 21 11 12 25 12 22 15 19 7 6 3 5 5 8 13 36 49 50 48 40
23 24 24 23 22 22 19 18 17 16 13 11 8 8 8 5 9 3 7 4 8 17 20 20 14 19 12 12 19 14 13 18 23 21 12 16 12 6 14 10 31 42 45 41 36
25 25 24 22 21 20 17 17 16 15 11 8 6 5 6 5 1 5 6 6 6 17 21 20 13 19 17 17 12 19 21 18 30 24 10 9 9 18 20 5 25 41 42 36 34
26 26 24 21 20 19 16 15 14 10 7 8 4 6 8 15 3 8 5 11 7 14 21 20 21 24 17 9 20 16 9 9 10 21 15 28 14 10 27 10 18 32 37 38 37
26 26 24 20 18 17 15 13 10 7 7 5 2 2 7 3 14 8 4 10 10 11 19 16 16 25 22 14 17 8 7 6 9 8 15 25 9 14 20 25 20 23 31 38 38
26 25 23 18 15 14 13 11 8 2 2 1 2 5 8 7 2 1 5 11 8 12 17 16 19 22 15 4 6 7 6 8 11 15 10 10 13 19 34 24 20 28 30 34 34
25 24 21 16 13 11 9 13 5 4 5 6 6 9 5 1 1 1 6 6 12 10 13 19 16 4 4 3 6 8 6 8 9 12 13 10 15 17 31 32 30 27 32 28 28
23 22 19 15 9 7 9 7 8 3 5 9 14 9 2 2 2 3 4 5 10 14 8 11 3 6 8 9 11 14 13 10 9 13 8 15 15 20 28 23 21 24 7 30 27
23 22 19 13 6 2 5 10 9 7 10 16 18 9 6 7 7 7 4 9 8 5 5 6 9 7 10 14 12 16 14 14 12 10 9 15 16 16 16 11 25 31 27 20 34
22 21 18 9 3 2 3 6 11 6 5 12 14 14 5 5 6 11 7 13 7 7 9 10 11 16 14 12 14 13 10 10 10 17 9 13 6 5 6 7 14 21 26 22 28
21 21 16 4 3 6 8 5 10 5 3 5 10 3 2 5 3 5 3 6 5 8 10 8 14 15 12 15 13 8 9 10 11 8 4 4 5 11 14 10 11 14 16 28 29
20 20 10 6 4 6 10 10 11 3 2 10 7 9 0 4 7 4 1 4 7 10 4 8 10 12 13 11 13 11 10 8 6 8 6 17 2 6 9 12 18 24 33 34 52
19 17 6 4 2 10 16 12 6 2 2 5 7 7 5 10 2 8 6 4 8 6 10 9 19 6 7 13 11 5 8 9 6 2 4 11 3 2 12 20 18 30 43 48 44
17 12 6 4 3 10 15 10 2 4 8 5 6 4 7 7 5 4 2 3 4 2 5 8 10 10 13 8 10 4 3 4 4 4 6 9 8 9 22 17 19 25 40 43 39
14 5 3 8 10 10 8 3 2 10 12 7 5 3 4 5 4 4 2 5 6 8 4 3 8 4 6 8 6 7 6 5 6 4 8 9 6 10 12 25 30 37 48 39 45
8 3 1 9 11 8 8 3 5 8 10 12 11 3 5 3 4 3 3 5 6 12 5 7 7 17 15 18 6 8 7 11 6 9 8 7 8 11 15 7 26 27 26 31 37
9 1 2 6 4 4 3 3 6 10 9 7 5 5 7 10 2 5 3 17 9 11 11 8 5 6 15 16 10 4 6 3 4 4 7 7 10 5 10 19 17 19 28 27 24
7 5 6 7 1 7 3 5 9 13 12 8 9 7 10 10 8 7 9 14 16 14 13 12 7 10 9 5 11 15 7 5 2 4 9 4 8 6 20 11 17 21 32 40 21
5 1 9 6 4 2 6 3 9 9 17 5 5 8 7 9 7 7 10 8 17 18 5 8 3 5 14 18 16 14 15 2 2 7 3 2 8 16 21 21 23 28 35 39 48
13 2 13 16 4 6 7 8 9 11 10 11 11 9 8 7 5 6 6 11 15 8 4 8 4 5 10 6 6 7 18 22 6 5 6 3 6 10 19 24 42 26 12 28 39
7 3 11 21 21 14 6 6 5 9 10 7 9 7 8 3 4 4 6 6 10 14 8 3 3 3 5 13 12 15 22 21 17 6 7 10 12 11 15 21 31 43 46 13 26
5 5 12 5 7 8 11 10 11 6 10 10 5 10 7 6 8 7 9 9 12 7 4 3 3 7 11 14 16 20 18 20 19 16 8 10 12 6 9 11 26 32 30 35 29
6 6 9 4 15 8 10 9 8 8 7 6 6 5 2 3 6 7 9 7 4 11 7 2 1 5 7 13 15 19 20 18 20 18 15 12 4 4 19 28 31 34 34 29 31
9 5 5 10 12 7 6 7 5 8 5 5 6 4 7 11 13 12 13 14 13 6 6 1 4 1 3 9 14 12 11 16 19 18 15 10 10 8 9 15 22 29 35 29 31
Wind_Direction
350 349 348 348 348 345 342 337 335 335 330 326 315 308 311 310 296 280 254 230 218 214 188 196 198 187 200 230 238 242 266 305 17 353 233 290 295 32 91 147 165 192 160 158 157
346 344 344 344 344 342 338 335 331 330 327 325 321 308 312 309 305 280 244 218 216 219 208 191 201 202 225 221 244 224 249 279 149 132 265 272 322 300 152 175 173 127 148 154 159
341 340 339 340 341 339 336 333 327 323 318 314 314 307 311 316 320 290 226 226 210 228 222 198 205 202 223 224 242 238 237 133 144 138 249 261 295 296 199 171 203 143 152 162 163
339 337 336 334 337 337 335 333 326 319 314 313 303 302 306 316 4 298 333 289 233 224 215 195 230 223 221 229 232 227 242 162 168 98 251 249 254 261 4 326 150 152 158 164 173
338 336 335 332 333 334 333 332 327 320 316 308 300 295 308 312 279 308 325 308 233 212 207 202 236 251 213 230 242 243 242 210 181 175 184 191 235 126 317 292 158 150 158 170 176
336 334 332 330 330 332 330 329 325 320 317 313 297 285 286 257 331 310 328 292 245 204 202 200 225 233 225 238 247 251 244 241 171 199 157 127 170 141 211 161 157 154 160 171 175
333 330 329 327 327 329 328 329 328 322 318 311 285 286 258 240 302 257 249 268 238 219 203 203 229 265 244 278 268 286 300 306 184 205 146 142 199 193 156 151 170 160 162 169 183
332 328 328 326 325 325 325 324 330 320 316 303 4 230 263 283 278 236 221 214 248 224 208 204 244 262 271 286 295 294 300 257 281 216 178 157 223 147 150 141 176 172 173 175 182
332 329 329 325 324 320 323 322 322 287 290 178 51 324 278 254 311 123 205 208 212 209 231 233 261 264 272 308 312 286 234 250 253 258 216 180 129 141 149 181 185 176 193 180 186
332 332 331 328 326 317 333 322 312 270 270 270 239 298 263 271 104 202 229 219 192 196 220 237 255 191 274 204 232 249 246 229 243 250 203 214 133 155 165 166 159 193 183 190 190
335 336 334 329 329 312 7 23 343 16 254 232 293 260 67 192 132 136 201 210 203 199 213 220 237 210 233 246 256 274 281 279 270 243 191 196 147 168 171 153 149 152 181 185 196
340 340 336 332 332 221 355 12 2 317 299 261 256 268 280 288 240 149 175 219 216 192 220 252 230 233 230 238 240 256 269 281 289 282 186 138 166 167 175 143 155 167 189 224 189
343 342 338 335 121 86 346 11 342 325 265 289 217 237 179 254 286 127 185 238 189 212 232 220 235 217 240 254 256 246 243 275 277 305 318 93 89 153 185 195 171 198 181 211 212
343 342 341 335 321 329 324 344 328 324 289 218 187 239 194 235 257 102 276 309 240 231 222 237 241 259 237 233 256 263 266 268 274 316 280 46 225 202 182 174 188 169 170 222 222
342 340 343 351 322 28 359 337 334 274 267 153 138 171 334 249 153 147 110 299 287 293 281 255 240 259 251 256 221 257 285 289 299 271 332 300 22 233 162 170 189 152 138 219 234
337 336 335 295 325 3 338 317 291 263 223 124 141 177 189 224 218 141 180 211 297 312 310 291 300 284 256 265 273 246 273 297 317 329 294 270 189 141 177 199 197 181 186 197 214
332 327 315 251 304 353 327 314 238 251 144 140 149 189 210 182 171 135 317 225 223 208 263 269 255 269 285 304 280 270 319 326 316 305 250 242 278 236 202 219 195 184 195 197 177
332 329 112 38 16 351 326 303 312 25 8 34 40 8 305 45 77 312 82 314 315 5 300 312 318 196 322 253 241 245 213 180 234 233 254 247 253 269 203 203 202 194 198 197 198
350 145 37 12 355 350 296 268 31 4 359 353 316 266 250 137 86 347 83 281 49 43 39 7 304 347 333 339 280 249 241 225 261 267 285 274 283 257 267 209 194 192 200 200 194
23 137 309 347 325 286 285 17 80 34 331 333 312 8 355 94 128 358 199 22 38 43 47 353 315 346 341 330 325 308 225 256 227 239 277 286 293 249 252 252 158 163 164 179 185
11 337 348 342 281 261 345 35 65 45 11 16 355 358 8 13 17 16 42 43 26 16 30 18 33 315 351 322 345 337 297 266 255 214 246 282 281 249 6 293 184 177 167 158 164
356 289 2 16 268 223 57 35 6 38 6 5 13 16 8 15 4 360 65 60 36 29 13 10 284 316 299 296 304 304 311 18 354 294 225 153 265 26 21 3 357 181 176 174 178
349 1 39 11 2 81 89 97 53 24 23 12 30 18 5 5 4 13 59 87 58 57 37 355 356 337 325 295 60 3 341 334 256 275 265 186 262 13 13 13 10 19 133 153 173
356 11 11 37 35 30 16 36 115 51 67 49 15 32 348 244 192 44 353 60 51 111 95 49 325 300 272 302 317 308 319 322 327 294 258 263 299 358 14 12 21 12 16 166 152
45 58 28 15 4 57 23 7 43 29 73 16 48 29 14 7 359 25 16 8 1 131 95 67 306 306 308 307 312 304 299 304 309 301 300 304 328 342 51 39 25 16 22 47 48
48 13 37 11 352 61 18 17 37 12 8 46 71 25 343 2 12 8 7 351 325 341 349 85 294 357 302 313 292 290 295 289 294 294 298 312 317 18 53 51 38 21 13 31 27
22 355 278 73 36 43 34 45 30 328 85 14 15 337 3 16 354 328 300 285 283 284 302 311 135 142 282 336 322 296 288 293 297 291 304 305 23 37 47 54 50 24 9 9 18